Weather in Novoabzakovo

Russia / Republic of Bashkortostan     53°48′33″N   58°38′38″E
temp.,
°C
wind,
m/s
gust,
m/s
humid.,
%
clouds,
%
prec.,
mm/h
press.,
hPa
HPBL,
m
3 march, wed
wed323:00−15wsw3789100 0.0 1008165
02:00−13wsw2489100 0.0 100682
05:00−10sw2688100 0.0 1005163
08:00−11sw238996 0.0 100353
11:00−5sw388681 0.0 1003497
14:00−3sw4783100 0.0 1002824
17:00−2ssw2591100 0.1 1002459
20:00−4sw339495 0.3 100254
4 march, thu
thu423:00−8wsw229289 0.3 100221
02:00−9wnw229382 0.0 100121
05:00−11w349254 0.0 100166
08:00−12w514870 0.0 1003337
11:00−9wnw815820 0.0 1004689
14:00−7w8138024 0.0 1004896
17:00−7wsw7138134 0.0 1004765
20:00−11wsw414859 0.0 1005399
5 march, fri
fri523:00−10sw516865 0.0 1004513
02:00−6wsw9198382 0.1 1002736
05:00−4wsw8188558 0.3 1002786
08:00−4wsw7168617 0.2 1004647
11:00−2wsw7148419 0.3 10051122
14:00−1sw8148499 0.1 10041222
17:00−2sw71487100 0.2 10041180
20:00−3ssw5159097 0.1 1002649
6 march, sat
sat623:00−1wsw8178872 0.4 1001921
02:00−3w10197721 0.3 1004878
05:00−8wnw6148514 0.3 1008422
08:00−13wsw239155 0.0 101153
11:00−8sw238361 0.0 1011350
14:00−5sse127532 0.0 1010582
17:00−6ne239565 0.9 1007259
20:00−8ne2297100 2.1 100687
7 march, sun
sun723:00−8ne2297100 3.8 100675
02:00−9ne3596100 1.8 1005238
05:00−12n2396100 2.3 100850
08:00−14wnw1197100 0.3 101120
11:00−11w228691 0.3 1012321
14:00−8wnw357110 0.0 1012898
17:00−9wnw368025 0.1 1012573
20:00−15w338856 0.1 101431